#datetime,building,power
2023-09-25T00:00:00,mnr,7.37
2023-09-25T00:01:00,mnr,7.45
2023-09-25T00:02:00,mnr,7.42
2023-09-25T00:03:00,mnr,7.70
2023-09-25T00:04:00,mnr,7.58
2023-09-25T00:05:00,mnr,8.53
2023-09-25T00:06:00,mnr,7.72
2023-09-25T00:07:00,mnr,7.49
2023-09-25T00:08:00,mnr,7.57
2023-09-25T00:09:00,mnr,6.84
2023-09-25T00:10:00,mnr,7.12
2023-09-25T00:11:00,mnr,6.94
2023-09-25T00:12:00,mnr,7.15
2023-09-25T00:13:00,mnr,7.36
2023-09-25T00:14:00,mnr,7.03
2023-09-25T00:15:00,mnr,7.11
2023-09-25T00:16:00,mnr,6.44
2023-09-25T00:17:00,mnr,6.31
2023-09-25T00:18:00,mnr,6.30
2023-09-25T00:19:00,mnr,6.35
2023-09-25T00:20:00,mnr,6.28
2023-09-25T00:21:00,mnr,6.30
2023-09-25T00:22:00,mnr,6.27
2023-09-25T00:23:00,mnr,6.20
2023-09-25T00:24:00,mnr,6.87
2023-09-25T00:25:00,mnr,6.08
2023-09-25T00:26:00,mnr,5.79
2023-09-25T00:27:00,mnr,5.26
2023-09-25T00:28:00,mnr,5.14
2023-09-25T00:29:00,mnr,4.80
2023-09-25T00:30:00,mnr,4.69
2023-09-25T00:31:00,mnr,5.11
2023-09-25T00:32:00,mnr,4.71
2023-09-25T00:33:00,mnr,4.73
2023-09-25T00:34:00,mnr,4.71
2023-09-25T00:35:00,mnr,4.77
2023-09-25T00:36:00,mnr,4.76
2023-09-25T00:37:00,mnr,4.77
2023-09-25T00:38:00,mnr,4.70
2023-09-25T00:39:00,mnr,5.03
2023-09-25T00:40:00,mnr,4.66
2023-09-25T00:41:00,mnr,4.70
2023-09-25T00:42:00,mnr,5.48
2023-09-25T00:43:00,mnr,4.62
2023-09-25T00:44:00,mnr,4.63
2023-09-25T00:45:00,mnr,4.65
2023-09-25T00:46:00,mnr,4.82
2023-09-25T00:47:00,mnr,4.68
2023-09-25T00:48:00,mnr,4.71
2023-09-25T00:49:00,mnr,4.90
2023-09-25T00:50:00,mnr,4.70
2023-09-25T00:51:00,mnr,5.40
2023-09-25T00:52:00,mnr,4.69
2023-09-25T00:53:00,mnr,4.81
2023-09-25T00:54:00,mnr,4.80
2023-09-25T00:55:00,mnr,4.77
2023-09-25T00:56:00,mnr,4.65
2023-09-25T00:57:00,mnr,4.62
2023-09-25T00:58:00,mnr,4.65
2023-09-25T00:59:00,mnr,5.27
2023-09-25T01:00:00,mnr,4.59
2023-09-25T01:01:00,mnr,4.64
2023-09-25T01:02:00,mnr,4.61
2023-09-25T01:03:00,mnr,4.87
2023-09-25T01:04:00,mnr,4.68
2023-09-25T01:05:00,mnr,4.62
2023-09-25T01:06:00,mnr,6.39
2023-09-25T01:07:00,mnr,6.29
2023-09-25T01:08:00,mnr,7.10
2023-09-25T01:09:00,mnr,7.05
2023-09-25T01:10:00,mnr,7.09
2023-09-25T01:11:00,mnr,7.74
2023-09-25T01:12:00,mnr,6.94
2023-09-25T01:13:00,mnr,6.73
2023-09-25T01:14:00,mnr,6.83
2023-09-25T01:15:00,mnr,7.72
2023-09-25T01:16:00,mnr,6.61
2023-09-25T01:17:00,mnr,6.89
2023-09-25T01:18:00,mnr,6.57
2023-09-25T01:19:00,mnr,7.12
2023-09-25T01:20:00,mnr,6.63
2023-09-25T01:21:00,mnr,6.68
2023-09-25T01:22:00,mnr,6.80
2023-09-25T01:23:00,mnr,6.73
2023-09-25T01:24:00,mnr,7.01
2023-09-25T01:25:00,mnr,6.96
2023-09-25T01:26:00,mnr,6.97
2023-09-25T01:27:00,mnr,7.63
2023-09-25T01:28:00,mnr,7.03
2023-09-25T01:29:00,mnr,7.52
2023-09-25T01:30:00,mnr,7.92
2023-09-25T01:31:00,mnr,7.97
2023-09-25T01:32:00,mnr,8.75
2023-09-25T01:33:00,mnr,7.01
2023-09-25T01:34:00,mnr,6.93
2023-09-25T01:35:00,mnr,6.89
2023-09-25T01:36:00,mnr,6.87
2023-09-25T01:37:00,mnr,6.86
2023-09-25T01:38:00,mnr,6.77
2023-09-25T01:39:00,mnr,6.75
2023-09-25T01:40:00,mnr,6.64
2023-09-25T01:41:00,mnr,7.27
2023-09-25T01:42:00,mnr,6.68
2023-09-25T01:43:00,mnr,7.82
2023-09-25T01:44:00,mnr,7.67
2023-09-25T01:45:00,mnr,8.36
2023-09-25T01:46:00,mnr,8.39
2023-09-25T01:47:00,mnr,7.75
2023-09-25T01:48:00,mnr,6.91
2023-09-25T01:49:00,mnr,6.60
2023-09-25T01:50:00,mnr,6.70
2023-09-25T01:51:00,mnr,6.63
2023-09-25T01:52:00,mnr,6.73
2023-09-25T01:53:00,mnr,7.20
2023-09-25T01:54:00,mnr,6.75
2023-09-25T01:55:00,mnr,7.35
2023-09-25T01:56:00,mnr,7.70
2023-09-25T01:57:00,mnr,8.34
2023-09-25T01:58:00,mnr,7.77
2023-09-25T01:59:00,mnr,7.66
2023-09-25T02:00:00,mnr,7.63
2023-09-25T02:01:00,mnr,7.55
2023-09-25T02:02:00,mnr,7.56
2023-09-25T02:03:00,mnr,6.41
2023-09-25T02:04:00,mnr,6.62
2023-09-25T02:05:00,mnr,6.92
2023-09-25T02:06:00,mnr,6.20
2023-09-25T02:07:00,mnr,6.00
2023-09-25T02:08:00,mnr,5.70
2023-09-25T02:09:00,mnr,5.86
2023-09-25T02:10:00,mnr,5.63
2023-09-25T02:11:00,mnr,5.30
2023-09-25T02:12:00,mnr,4.69
2023-09-25T02:13:00,mnr,5.44
2023-09-25T02:14:00,mnr,5.26
2023-09-25T02:15:00,mnr,5.24
2023-09-25T02:16:00,mnr,5.21
2023-09-25T02:17:00,mnr,5.23
2023-09-25T02:18:00,mnr,5.23
2023-09-25T02:19:00,mnr,5.23
2023-09-25T02:20:00,mnr,5.14
2023-09-25T02:21:00,mnr,4.58
2023-09-25T02:22:00,mnr,4.54
2023-09-25T02:23:00,mnr,4.47
2023-09-25T02:24:00,mnr,4.48
2023-09-25T02:25:00,mnr,4.63
2023-09-25T02:26:00,mnr,4.54
2023-09-25T02:27:00,mnr,4.66
2023-09-25T02:28:00,mnr,4.43
2023-09-25T02:29:00,mnr,5.12
2023-09-25T02:30:00,mnr,4.50
2023-09-25T02:31:00,mnr,4.46
2023-09-25T02:32:00,mnr,4.46
2023-09-25T02:33:00,mnr,4.38
2023-09-25T02:34:00,mnr,4.38
2023-09-25T02:35:00,mnr,4.37
2023-09-25T02:36:00,mnr,5.14
2023-09-25T02:37:00,mnr,4.47
2023-09-25T02:38:00,mnr,4.93
2023-09-25T02:39:00,mnr,4.91
2023-09-25T02:40:00,mnr,6.10
2023-09-25T02:41:00,mnr,4.84
2023-09-25T02:42:00,mnr,5.58
2023-09-25T02:43:00,mnr,4.97
2023-09-25T02:44:00,mnr,5.72
2023-09-25T02:45:00,mnr,4.95
2023-09-25T02:46:00,mnr,4.96
2023-09-25T02:47:00,mnr,5.03
2023-09-25T02:48:00,mnr,4.85
2023-09-25T02:49:00,mnr,4.84
2023-09-25T02:50:00,mnr,5.63
2023-09-25T02:51:00,mnr,4.93
2023-09-25T02:52:00,mnr,4.86
2023-09-25T02:53:00,mnr,4.92
2023-09-25T02:54:00,mnr,5.34
2023-09-25T02:55:00,mnr,5.69
2023-09-25T02:56:00,mnr,5.06
2023-09-25T02:57:00,mnr,4.99
2023-09-25T02:58:00,mnr,5.00
2023-09-25T02:59:00,mnr,5.03
2023-09-25T03:00:00,mnr,5.01
2023-09-25T03:01:00,mnr,4.99
2023-09-25T03:02:00,mnr,5.16
2023-09-25T03:03:00,mnr,4.84
2023-09-25T03:04:00,mnr,4.83
2023-09-25T03:05:00,mnr,5.47
2023-09-25T03:06:00,mnr,4.80
2023-09-25T03:07:00,mnr,4.80
2023-09-25T03:08:00,mnr,4.77
2023-09-25T03:09:00,mnr,4.82
2023-09-25T03:10:00,mnr,4.84
2023-09-25T03:11:00,mnr,5.03
2023-09-25T03:12:00,mnr,4.74
2023-09-25T03:13:00,mnr,4.67
2023-09-25T03:14:00,mnr,5.41
2023-09-25T03:15:00,mnr,4.75
2023-09-25T03:16:00,mnr,4.65
2023-09-25T03:17:00,mnr,5.50
2023-09-25T03:18:00,mnr,4.70
2023-09-25T03:19:00,mnr,4.25
2023-09-25T03:20:00,mnr,4.61
2023-09-25T03:21:00,mnr,4.22
2023-09-25T03:22:00,mnr,4.28
2023-09-25T03:23:00,mnr,4.18
2023-09-25T03:24:00,mnr,4.19
2023-09-25T03:25:00,mnr,4.15
2023-09-25T03:26:00,mnr,4.19
2023-09-25T03:27:00,mnr,4.20
2023-09-25T03:28:00,mnr,4.20
2023-09-25T03:29:00,mnr,4.22
2023-09-25T03:30:00,mnr,4.27
2023-09-25T03:31:00,mnr,4.20
2023-09-25T03:32:00,mnr,4.27
2023-09-25T03:33:00,mnr,4.26
2023-09-25T03:34:00,mnr,4.30
2023-09-25T03:35:00,mnr,4.27
2023-09-25T03:36:00,mnr,4.37
2023-09-25T03:37:00,mnr,4.99
2023-09-25T03:38:00,mnr,4.46
2023-09-25T03:39:00,mnr,5.47
2023-09-25T03:40:00,mnr,4.40
2023-09-25T03:41:00,mnr,5.18
2023-09-25T03:42:00,mnr,5.70
2023-09-25T03:43:00,mnr,4.43
2023-09-25T03:44:00,mnr,4.41
2023-09-25T03:45:00,mnr,4.39
2023-09-25T03:46:00,mnr,4.45
2023-09-25T03:47:00,mnr,4.48
2023-09-25T03:48:00,mnr,4.45
2023-09-25T03:49:00,mnr,4.45
2023-09-25T03:50:00,mnr,4.71
2023-09-25T03:51:00,mnr,4.98
2023-09-25T03:52:00,mnr,4.37
2023-09-25T03:53:00,mnr,4.37
2023-09-25T03:54:00,mnr,4.34
2023-09-25T03:55:00,mnr,4.29
2023-09-25T03:56:00,mnr,4.27
2023-09-25T03:57:00,mnr,5.48
2023-09-25T03:58:00,mnr,4.28
2023-09-25T03:59:00,mnr,4.33
2023-09-25T04:00:00,mnr,4.30
2023-09-25T04:01:00,mnr,4.40
2023-09-25T04:02:00,mnr,4.37
2023-09-25T04:03:00,mnr,4.38
2023-09-25T04:04:00,mnr,4.35
2023-09-25T04:05:00,mnr,4.73
2023-09-25T04:06:00,mnr,4.75
2023-09-25T04:07:00,mnr,5.18
2023-09-25T04:08:00,mnr,4.90
2023-09-25T04:09:00,mnr,4.83
2023-09-25T04:10:00,mnr,4.81
2023-09-25T04:11:00,mnr,4.88
2023-09-25T04:12:00,mnr,4.82
2023-09-25T04:13:00,mnr,4.88
2023-09-25T04:14:00,mnr,5.16
2023-09-25T04:15:00,mnr,4.78
2023-09-25T04:16:00,mnr,4.92
2023-09-25T04:17:00,mnr,5.59
2023-09-25T04:18:00,mnr,4.94
2023-09-25T04:19:00,mnr,4.89
2023-09-25T04:20:00,mnr,5.01
2023-09-25T04:21:00,mnr,4.92
2023-09-25T04:22:00,mnr,5.67
2023-09-25T04:23:00,mnr,4.95
2023-09-25T04:24:00,mnr,4.91
2023-09-25T04:25:00,mnr,4.89
2023-09-25T04:26:00,mnr,5.02
2023-09-25T04:27:00,mnr,4.91
2023-09-25T04:28:00,mnr,4.91
2023-09-25T04:29:00,mnr,5.50
2023-09-25T04:30:00,mnr,4.79
2023-09-25T04:31:00,mnr,4.86
2023-09-25T04:32:00,mnr,5.44
2023-09-25T04:33:00,mnr,4.72
2023-09-25T04:34:00,mnr,4.73
2023-09-25T04:35:00,mnr,4.72
2023-09-25T04:36:00,mnr,4.78
2023-09-25T04:37:00,mnr,4.73
2023-09-25T04:38:00,mnr,4.73
2023-09-25T04:39:00,mnr,5.20
2023-09-25T04:40:00,mnr,4.70
2023-09-25T04:41:00,mnr,4.66
2023-09-25T04:42:00,mnr,4.71
2023-09-25T04:43:00,mnr,5.72
2023-09-25T04:44:00,mnr,4.60
2023-09-25T04:45:00,mnr,4.69
2023-09-25T04:46:00,mnr,4.20
2023-09-25T04:47:00,mnr,4.27
2023-09-25T04:48:00,mnr,4.21
2023-09-25T04:49:00,mnr,4.21
2023-09-25T04:50:00,mnr,4.27
2023-09-25T04:51:00,mnr,4.32
2023-09-25T04:52:00,mnr,4.27
2023-09-25T04:53:00,mnr,4.38
2023-09-25T04:54:00,mnr,4.45
2023-09-25T04:55:00,mnr,4.42
2023-09-25T04:56:00,mnr,4.32
2023-09-25T04:57:00,mnr,4.99
2023-09-25T04:58:00,mnr,5.00
2023-09-25T04:59:00,mnr,4.27
2023-09-25T05:00:00,mnr,4.35
2023-09-25T05:01:00,mnr,5.02
2023-09-25T05:02:00,mnr,4.29
2023-09-25T05:03:00,mnr,4.32
2023-09-25T05:04:00,mnr,4.64
2023-09-25T05:05:00,mnr,4.30
2023-09-25T05:06:00,mnr,4.32
2023-09-25T05:07:00,mnr,4.32
2023-09-25T05:08:00,mnr,4.32
2023-09-25T05:09:00,mnr,4.32
2023-09-25T05:10:00,mnr,4.31
2023-09-25T05:11:00,mnr,4.32
2023-09-25T05:12:00,mnr,4.62
2023-09-25T05:13:00,mnr,4.30
2023-09-25T05:14:00,mnr,4.36
2023-09-25T05:15:00,mnr,4.32
2023-09-25T05:16:00,mnr,4.35
2023-09-25T05:17:00,mnr,4.33
2023-09-25T05:18:00,mnr,4.57
2023-09-25T05:19:00,mnr,4.34
2023-09-25T05:20:00,mnr,4.31
2023-09-25T05:21:00,mnr,4.40
2023-09-25T05:22:00,mnr,4.44
2023-09-25T05:23:00,mnr,4.45
2023-09-25T05:24:00,mnr,4.40
2023-09-25T05:25:00,mnr,5.02
2023-09-25T05:26:00,mnr,4.36
2023-09-25T05:27:00,mnr,4.33
2023-09-25T05:28:00,mnr,4.31
2023-09-25T05:29:00,mnr,4.36
2023-09-25T05:30:00,mnr,4.32
2023-09-25T05:31:00,mnr,4.74
2023-09-25T05:32:00,mnr,5.41
2023-09-25T05:33:00,mnr,4.77
2023-09-25T05:34:00,mnr,5.50
2023-09-25T05:35:00,mnr,4.82
2023-09-25T05:36:00,mnr,4.78
2023-09-25T05:37:00,mnr,4.75
2023-09-25T05:38:00,mnr,5.09
2023-09-25T05:39:00,mnr,4.74
2023-09-25T05:40:00,mnr,5.36
2023-09-25T05:41:00,mnr,4.82
2023-09-25T05:42:00,mnr,4.77
2023-09-25T05:43:00,mnr,5.37
2023-09-25T05:44:00,mnr,4.94
2023-09-25T05:45:00,mnr,4.93
2023-09-25T05:46:00,mnr,4.91
2023-09-25T05:47:00,mnr,4.83
2023-09-25T05:48:00,mnr,4.88
2023-09-25T05:49:00,mnr,4.85
2023-09-25T05:50:00,mnr,4.82
2023-09-25T05:51:00,mnr,4.78
2023-09-25T05:52:00,mnr,4.75
2023-09-25T05:53:00,mnr,6.09
2023-09-25T05:54:00,mnr,4.75
2023-09-25T05:55:00,mnr,4.89
2023-09-25T05:56:00,mnr,4.79
2023-09-25T05:57:00,mnr,5.39
2023-09-25T05:58:00,mnr,4.82
2023-09-25T05:59:00,mnr,4.86
2023-09-25T06:00:00,mnr,4.85
2023-09-25T06:01:00,mnr,5.02
2023-09-25T06:02:00,mnr,7.98
2023-09-25T06:03:00,mnr,8.68
2023-09-25T06:04:00,mnr,9.28
2023-09-25T06:05:00,mnr,11.52
2023-09-25T06:06:00,mnr,13.13
2023-09-25T06:07:00,mnr,12.98
2023-09-25T06:08:00,mnr,11.37
2023-09-25T06:09:00,mnr,11.07
2023-09-25T06:10:00,mnr,10.92
2023-09-25T06:11:00,mnr,10.98
2023-09-25T06:12:00,mnr,10.47
2023-09-25T06:13:00,mnr,10.31
2023-09-25T06:14:00,mnr,12.67
2023-09-25T06:15:00,mnr,12.07
2023-09-25T06:16:00,mnr,12.10
2023-09-25T06:17:00,mnr,12.30
2023-09-25T06:18:00,mnr,12.12
2023-09-25T06:19:00,mnr,12.03
2023-09-25T06:20:00,mnr,11.94
2023-09-25T06:21:00,mnr,11.96
2023-09-25T06:22:00,mnr,12.02
2023-09-25T06:23:00,mnr,12.93
2023-09-25T06:24:00,mnr,13.60
2023-09-25T06:25:00,mnr,14.17
2023-09-25T06:26:00,mnr,15.27
2023-09-25T06:27:00,mnr,14.39
2023-09-25T06:28:00,mnr,14.20
2023-09-25T06:29:00,mnr,14.23
2023-09-25T06:30:00,mnr,14.24
2023-09-25T06:31:00,mnr,13.67
2023-09-25T06:32:00,mnr,14.29
2023-09-25T06:33:00,mnr,14.90
2023-09-25T06:34:00,mnr,13.56
2023-09-25T06:35:00,mnr,13.57
2023-09-25T06:36:00,mnr,14.27
2023-09-25T06:37:00,mnr,14.26
2023-09-25T06:38:00,mnr,14.24
2023-09-25T06:39:00,mnr,14.91
2023-09-25T06:40:00,mnr,13.64
2023-09-25T06:41:00,mnr,15.17
2023-09-25T06:42:00,mnr,23.18
2023-09-25T06:43:00,mnr,14.37
2023-09-25T06:44:00,mnr,14.43
2023-09-25T06:45:00,mnr,14.40
2023-09-25T06:46:00,mnr,13.84
2023-09-25T06:47:00,mnr,13.87
2023-09-25T06:48:00,mnr,14.41
2023-09-25T06:49:00,mnr,13.82
2023-09-25T06:50:00,mnr,14.37
2023-09-25T06:51:00,mnr,13.70
2023-09-25T06:52:00,mnr,13.45
2023-09-25T06:53:00,mnr,12.07
2023-09-25T06:54:00,mnr,22.05
2023-09-25T06:55:00,mnr,13.94
2023-09-25T06:56:00,mnr,14.54
2023-09-25T06:57:00,mnr,13.96
2023-09-25T06:58:00,mnr,13.94
2023-09-25T06:59:00,mnr,13.95
2023-09-25T07:00:00,mnr,13.92
2023-09-25T07:01:00,mnr,13.17
2023-09-25T07:02:00,mnr,13.07
2023-09-25T07:03:00,mnr,12.92
2023-09-25T07:04:00,mnr,20.68
2023-09-25T07:05:00,mnr,13.67
2023-09-25T07:06:00,mnr,11.37
2023-09-25T07:07:00,mnr,13.81
2023-09-25T07:08:00,mnr,13.99
2023-09-25T07:09:00,mnr,13.98
2023-09-25T07:10:00,mnr,14.69
2023-09-25T07:11:00,mnr,13.99
2023-09-25T07:12:00,mnr,14.70
2023-09-25T07:13:00,mnr,13.96
2023-09-25T07:14:00,mnr,14.45
2023-09-25T07:15:00,mnr,14.02
2023-09-25T07:16:00,mnr,14.64
2023-09-25T07:17:00,mnr,14.03
2023-09-25T07:18:00,mnr,13.37
2023-09-25T07:19:00,mnr,13.38
2023-09-25T07:20:00,mnr,13.37
2023-09-25T07:21:00,mnr,13.93
2023-09-25T07:22:00,mnr,14.03
2023-09-25T07:23:00,mnr,13.07
2023-09-25T07:24:00,mnr,12.83
2023-09-25T07:25:00,mnr,12.41
2023-09-25T07:26:00,mnr,12.32
2023-09-25T07:27:00,mnr,12.37
2023-09-25T07:28:00,mnr,13.23
2023-09-25T07:29:00,mnr,15.69
2023-09-25T07:30:00,mnr,14.10
2023-09-25T07:31:00,mnr,14.17
2023-09-25T07:32:00,mnr,14.18
2023-09-25T07:33:00,mnr,14.12
2023-09-25T07:34:00,mnr,14.84
2023-09-25T07:35:00,mnr,14.16
2023-09-25T07:36:00,mnr,14.24
2023-09-25T07:37:00,mnr,13.63
2023-09-25T07:38:00,mnr,12.89
2023-09-25T07:39:00,mnr,12.85
2023-09-25T07:40:00,mnr,12.94
2023-09-25T07:41:00,mnr,13.13
2023-09-25T07:42:00,mnr,12.91
2023-09-25T07:43:00,mnr,13.08
2023-09-25T07:44:00,mnr,13.12
2023-09-25T07:45:00,mnr,12.46
2023-09-25T07:46:00,mnr,12.57
2023-09-25T07:47:00,mnr,12.50
2023-09-25T07:48:00,mnr,12.39
2023-09-25T07:49:00,mnr,12.46
2023-09-25T07:50:00,mnr,12.61
2023-09-25T07:51:00,mnr,13.43
2023-09-25T07:52:00,mnr,13.15
2023-09-25T07:53:00,mnr,13.38
2023-09-25T07:54:00,mnr,13.29
2023-09-25T07:55:00,mnr,13.17
2023-09-25T07:56:00,mnr,14.66
2023-09-25T07:57:00,mnr,14.04
2023-09-25T07:58:00,mnr,14.13
2023-09-25T07:59:00,mnr,14.84
2023-09-25T08:00:00,mnr,14.09
2023-09-25T08:01:00,mnr,14.23
2023-09-25T08:02:00,mnr,14.47
2023-09-25T08:03:00,mnr,15.38
2023-09-25T08:04:00,mnr,15.45
2023-09-25T08:05:00,mnr,14.79
2023-09-25T08:06:00,mnr,15.42
2023-09-25T08:07:00,mnr,11.28
2023-09-25T08:08:00,mnr,15.26
2023-09-25T08:09:00,mnr,14.92
2023-09-25T08:10:00,mnr,14.96
2023-09-25T08:11:00,mnr,15.21
2023-09-25T08:12:00,mnr,16.31
2023-09-25T08:13:00,mnr,16.31
2023-09-25T08:14:00,mnr,15.20
2023-09-25T08:15:00,mnr,15.25
2023-09-25T08:16:00,mnr,15.78
2023-09-25T08:17:00,mnr,16.14
2023-09-25T08:18:00,mnr,15.77
2023-09-25T08:19:00,mnr,16.96
2023-09-25T08:20:00,mnr,17.05
2023-09-25T08:21:00,mnr,15.85
2023-09-25T08:22:00,mnr,15.65
2023-09-25T08:23:00,mnr,17.22
2023-09-25T08:24:00,mnr,15.59
2023-09-25T08:25:00,mnr,18.18
2023-09-25T08:26:00,mnr,17.95
2023-09-25T08:27:00,mnr,18.88
2023-09-25T08:28:00,mnr,17.26
2023-09-25T08:29:00,mnr,18.93
2023-09-25T08:30:00,mnr,17.30
2023-09-25T08:31:00,mnr,17.82
2023-09-25T08:32:00,mnr,17.30
2023-09-25T08:33:00,mnr,17.26
2023-09-25T08:34:00,mnr,14.31
2023-09-25T08:35:00,mnr,18.68
2023-09-25T08:36:00,mnr,17.72
2023-09-25T08:37:00,mnr,18.23
2023-09-25T08:38:00,mnr,15.45
2023-09-25T08:39:00,mnr,17.54
2023-09-25T08:40:00,mnr,17.99
2023-09-25T08:41:00,mnr,18.52
2023-09-25T08:42:00,mnr,17.72
2023-09-25T08:43:00,mnr,18.27
2023-09-25T08:44:00,mnr,17.65
2023-09-25T08:45:00,mnr,18.05
2023-09-25T08:46:00,mnr,17.79
2023-09-25T08:47:00,mnr,18.46
2023-09-25T08:48:00,mnr,17.77
2023-09-25T08:49:00,mnr,17.70
2023-09-25T08:50:00,mnr,17.79
2023-09-25T08:51:00,mnr,18.14
2023-09-25T08:52:00,mnr,18.43
2023-09-25T08:53:00,mnr,18.12
2023-09-25T08:54:00,mnr,18.65
2023-09-25T08:55:00,mnr,18.85
2023-09-25T08:56:00,mnr,18.24
2023-09-25T08:57:00,mnr,18.29
2023-09-25T08:58:00,mnr,18.18
2023-09-25T08:59:00,mnr,18.07
2023-09-25T09:00:00,mnr,18.10
2023-09-25T09:01:00,mnr,17.98
2023-09-25T09:02:00,mnr,18.07
2023-09-25T09:03:00,mnr,18.00
2023-09-25T09:04:00,mnr,18.00
2023-09-25T09:05:00,mnr,18.77
2023-09-25T09:06:00,mnr,18.26
2023-09-25T09:07:00,mnr,17.87
2023-09-25T09:08:00,mnr,17.26
2023-09-25T09:09:00,mnr,16.91
2023-09-25T09:10:00,mnr,18.19
2023-09-25T09:11:00,mnr,17.59
2023-09-25T09:12:00,mnr,17.74
2023-09-25T09:13:00,mnr,17.08
2023-09-25T09:14:00,mnr,17.08
2023-09-25T09:15:00,mnr,17.10
2023-09-25T09:16:00,mnr,18.17
2023-09-25T09:17:00,mnr,17.34
2023-09-25T09:18:00,mnr,17.07
2023-09-25T09:19:00,mnr,17.59
2023-09-25T09:20:00,mnr,17.06
2023-09-25T09:21:00,mnr,16.93
2023-09-25T09:22:00,mnr,16.95
2023-09-25T09:23:00,mnr,16.92
2023-09-25T09:24:00,mnr,17.32
2023-09-25T09:25:00,mnr,16.78
2023-09-25T09:26:00,mnr,18.19
2023-09-25T09:27:00,mnr,19.16
2023-09-25T09:28:00,mnr,18.54
2023-09-25T09:29:00,mnr,18.60
2023-09-25T09:30:00,mnr,17.94
2023-09-25T09:31:00,mnr,17.81
2023-09-25T09:32:00,mnr,17.79
2023-09-25T09:33:00,mnr,17.51
2023-09-25T09:34:00,mnr,17.45
2023-09-25T09:35:00,mnr,17.81
2023-09-25T09:36:00,mnr,18.72
2023-09-25T09:37:00,mnr,18.19
2023-09-25T09:38:00,mnr,17.96
2023-09-25T09:39:00,mnr,18.74
2023-09-25T09:40:00,mnr,15.96
2023-09-25T09:41:00,mnr,17.51
2023-09-25T09:42:00,mnr,20.85
2023-09-25T09:43:00,mnr,17.66
2023-09-25T09:44:00,mnr,21.50
2023-09-25T09:45:00,mnr,21.94
2023-09-25T09:46:00,mnr,21.57
2023-09-25T09:47:00,mnr,23.27
2023-09-25T09:48:00,mnr,21.86
2023-09-25T09:49:00,mnr,21.12
2023-09-25T09:50:00,mnr,21.02
2023-09-25T09:51:00,mnr,21.16
2023-09-25T09:52:00,mnr,21.14
2023-09-25T09:53:00,mnr,22.02
2023-09-25T09:54:00,mnr,21.31
2023-09-25T09:55:00,mnr,21.23
2023-09-25T09:56:00,mnr,21.93
2023-09-25T09:57:00,mnr,22.52
2023-09-25T09:58:00,mnr,22.58
2023-09-25T09:59:00,mnr,21.61
2023-09-25T10:00:00,mnr,21.18
2023-09-25T10:01:00,mnr,20.99
2023-09-25T10:02:00,mnr,20.92
2023-09-25T10:03:00,mnr,22.36
2023-09-25T10:04:00,mnr,22.29
2023-09-25T10:05:00,mnr,22.02
2023-09-25T10:06:00,mnr,22.12
2023-09-25T10:07:00,mnr,21.63
2023-09-25T10:08:00,mnr,21.23
2023-09-25T10:09:00,mnr,21.91
2023-09-25T10:10:00,mnr,22.21
2023-09-25T10:11:00,mnr,20.71
2023-09-25T10:12:00,mnr,21.22
2023-09-25T10:13:00,mnr,20.64
2023-09-25T10:14:00,mnr,20.88
2023-09-25T10:15:00,mnr,19.49
2023-09-25T10:16:00,mnr,19.69
2023-09-25T10:17:00,mnr,19.46
2023-09-25T10:18:00,mnr,19.48
2023-09-25T10:19:00,mnr,22.97
2023-09-25T10:20:00,mnr,22.10
2023-09-25T10:21:00,mnr,20.27
2023-09-25T10:22:00,mnr,20.30
2023-09-25T10:23:00,mnr,20.23
2023-09-25T10:24:00,mnr,20.23
2023-09-25T10:25:00,mnr,20.57
2023-09-25T10:26:00,mnr,20.34
2023-09-25T10:27:00,mnr,20.32
2023-09-25T10:28:00,mnr,20.31
2023-09-25T10:29:00,mnr,20.97
2023-09-25T10:30:00,mnr,20.45
2023-09-25T10:31:00,mnr,20.45
2023-09-25T10:32:00,mnr,20.44
2023-09-25T10:33:00,mnr,20.84
2023-09-25T10:34:00,mnr,20.47
2023-09-25T10:35:00,mnr,20.59
2023-09-25T10:36:00,mnr,20.63
2023-09-25T10:37:00,mnr,22.70
2023-09-25T10:38:00,mnr,20.81
2023-09-25T10:39:00,mnr,20.06
2023-09-25T10:40:00,mnr,21.33
2023-09-25T10:41:00,mnr,19.79
2023-09-25T10:42:00,mnr,19.31
2023-09-25T10:43:00,mnr,20.04
2023-09-25T10:44:00,mnr,19.61
2023-09-25T10:45:00,mnr,18.86
2023-09-25T10:46:00,mnr,18.82
2023-09-25T10:47:00,mnr,18.72
2023-09-25T10:48:00,mnr,20.15
2023-09-25T10:49:00,mnr,19.06
2023-09-25T10:50:00,mnr,18.67
2023-09-25T10:51:00,mnr,18.79
2023-09-25T10:52:00,mnr,18.66
2023-09-25T10:53:00,mnr,18.78
2023-09-25T10:54:00,mnr,18.87
2023-09-25T10:55:00,mnr,18.85
2023-09-25T10:56:00,mnr,18.45
2023-09-25T10:57:00,mnr,18.36
2023-09-25T10:58:00,mnr,17.96
2023-09-25T10:59:00,mnr,19.09
2023-09-25T11:00:00,mnr,18.41
2023-09-25T11:01:00,mnr,14.21
2023-09-25T11:02:00,mnr,18.15
2023-09-25T11:03:00,mnr,19.29
2023-09-25T11:04:00,mnr,18.12
2023-09-25T11:05:00,mnr,19.61
2023-09-25T11:06:00,mnr,18.59
2023-09-25T11:07:00,mnr,18.94
2023-09-25T11:08:00,mnr,18.77
2023-09-25T11:09:00,mnr,15.63
2023-09-25T11:10:00,mnr,28.94
2023-09-25T11:11:00,mnr,20.83
2023-09-25T11:12:00,mnr,28.75
2023-09-25T11:13:00,mnr,19.05
2023-09-25T11:14:00,mnr,15.20
2023-09-25T11:15:00,mnr,28.58
2023-09-25T11:16:00,mnr,18.63
2023-09-25T11:17:00,mnr,19.17
2023-09-25T11:18:00,mnr,20.15
2023-09-25T11:19:00,mnr,19.21
2023-09-25T11:20:00,mnr,19.05
2023-09-25T11:21:00,mnr,19.25
2023-09-25T11:22:00,mnr,19.45
2023-09-25T11:23:00,mnr,20.43
2023-09-25T11:24:00,mnr,19.32
2023-09-25T11:25:00,mnr,19.21
2023-09-25T11:26:00,mnr,19.23
2023-09-25T11:27:00,mnr,19.26
2023-09-25T11:28:00,mnr,19.47
2023-09-25T11:29:00,mnr,19.24
2023-09-25T11:30:00,mnr,19.42
2023-09-25T11:31:00,mnr,19.16
2023-09-25T11:32:00,mnr,19.76
2023-09-25T11:33:00,mnr,20.68
2023-09-25T11:34:00,mnr,19.53
2023-09-25T11:35:00,mnr,19.56
2023-09-25T11:36:00,mnr,19.45
2023-09-25T11:37:00,mnr,19.65
2023-09-25T11:38:00,mnr,19.37
2023-09-25T11:39:00,mnr,19.33
2023-09-25T11:40:00,mnr,20.12
2023-09-25T11:41:00,mnr,19.43
2023-09-25T11:42:00,mnr,19.36
2023-09-25T11:43:00,mnr,20.26
2023-09-25T11:44:00,mnr,19.52
2023-09-25T11:45:00,mnr,20.13
2023-09-25T11:46:00,mnr,19.04
2023-09-25T11:47:00,mnr,20.03
2023-09-25T11:48:00,mnr,19.32
2023-09-25T11:49:00,mnr,19.20
2023-09-25T11:50:00,mnr,20.03
2023-09-25T11:51:00,mnr,19.15
2023-09-25T11:52:00,mnr,19.82
2023-09-25T11:53:00,mnr,19.17
2023-09-25T11:54:00,mnr,19.36
2023-09-25T11:55:00,mnr,19.41
2023-09-25T11:56:00,mnr,19.24
2023-09-25T11:57:00,mnr,19.25
2023-09-25T11:58:00,mnr,19.51
2023-09-25T11:59:00,mnr,19.10
2023-09-25T12:00:00,mnr,19.25
2023-09-25T12:01:00,mnr,18.73
2023-09-25T12:02:00,mnr,19.07
2023-09-25T12:03:00,mnr,19.52
2023-09-25T12:04:00,mnr,19.95
2023-09-25T12:05:00,mnr,20.00
2023-09-25T12:06:00,mnr,20.36
2023-09-25T12:07:00,mnr,22.30
2023-09-25T12:08:00,mnr,19.40
2023-09-25T12:09:00,mnr,17.74
2023-09-25T12:10:00,mnr,17.79
2023-09-25T12:11:00,mnr,18.31
2023-09-25T12:12:00,mnr,17.93
2023-09-25T12:13:00,mnr,17.77
2023-09-25T12:14:00,mnr,17.23
2023-09-25T12:15:00,mnr,13.90
2023-09-25T12:16:00,mnr,17.22
2023-09-25T12:17:00,mnr,18.67
2023-09-25T12:18:00,mnr,17.14
2023-09-25T12:19:00,mnr,17.65
2023-09-25T12:20:00,mnr,17.19
2023-09-25T12:21:00,mnr,17.09
2023-09-25T12:22:00,mnr,18.11
2023-09-25T12:23:00,mnr,17.78
2023-09-25T12:24:00,mnr,17.18
2023-09-25T12:25:00,mnr,17.21
2023-09-25T12:26:00,mnr,17.24
2023-09-25T12:27:00,mnr,16.75
2023-09-25T12:28:00,mnr,16.44
2023-09-25T12:29:00,mnr,16.62
2023-09-25T12:30:00,mnr,16.47
2023-09-25T12:31:00,mnr,16.95
2023-09-25T12:32:00,mnr,16.89
2023-09-25T12:33:00,mnr,17.23
2023-09-25T12:34:00,mnr,16.65
2023-09-25T12:35:00,mnr,16.88
2023-09-25T12:36:00,mnr,16.64
2023-09-25T12:37:00,mnr,17.01
2023-09-25T12:38:00,mnr,17.49
2023-09-25T12:39:00,mnr,18.17
2023-09-25T12:40:00,mnr,18.29
2023-09-25T12:41:00,mnr,17.66
2023-09-25T12:42:00,mnr,17.53
2023-09-25T12:43:00,mnr,18.81
2023-09-25T12:44:00,mnr,18.01
2023-09-25T12:45:00,mnr,18.35
2023-09-25T12:46:00,mnr,18.20
2023-09-25T12:47:00,mnr,18.79
2023-09-25T12:48:00,mnr,17.88
2023-09-25T12:49:00,mnr,18.10
2023-09-25T12:50:00,mnr,18.09
2023-09-25T12:51:00,mnr,18.23
2023-09-25T12:52:00,mnr,18.27
2023-09-25T12:53:00,mnr,20.61
2023-09-25T12:54:00,mnr,19.98
2023-09-25T12:55:00,mnr,20.31
2023-09-25T12:56:00,mnr,20.61
2023-09-25T12:57:00,mnr,18.82
2023-09-25T12:58:00,mnr,18.60
2023-09-25T12:59:00,mnr,18.39
2023-09-25T13:00:00,mnr,18.18
2023-09-25T13:01:00,mnr,15.17
2023-09-25T13:02:00,mnr,18.36
2023-09-25T13:03:00,mnr,18.25
2023-09-25T13:04:00,mnr,28.78
2023-09-25T13:05:00,mnr,20.21
2023-09-25T13:06:00,mnr,15.91
2023-09-25T13:07:00,mnr,19.56
2023-09-25T13:08:00,mnr,30.50
2023-09-25T13:09:00,mnr,21.32
2023-09-25T13:10:00,mnr,22.21
2023-09-25T13:11:00,mnr,20.44
2023-09-25T13:12:00,mnr,19.46
2023-09-25T13:13:00,mnr,19.47
2023-09-25T13:14:00,mnr,19.26
2023-09-25T13:15:00,mnr,19.34
2023-09-25T13:16:00,mnr,18.96
2023-09-25T13:17:00,mnr,19.23
2023-09-25T13:18:00,mnr,19.84
2023-09-25T13:19:00,mnr,18.99
2023-09-25T13:20:00,mnr,19.39
2023-09-25T13:21:00,mnr,19.32
2023-09-25T13:22:00,mnr,19.07
2023-09-25T13:23:00,mnr,18.72
2023-09-25T13:24:00,mnr,18.67
2023-09-25T13:25:00,mnr,19.49
2023-09-25T13:26:00,mnr,19.23
2023-09-25T13:27:00,mnr,19.22
2023-09-25T13:28:00,mnr,19.82
2023-09-25T13:29:00,mnr,19.05
2023-09-25T13:30:00,mnr,19.19